Back to catalog

STARLINK-35663

AliveCommunicationsVLEO
NORAD 66491·PAYLOAD·🇺🇸 United States

Launched Nov 15, 2025 from Cape Canaveral Space Force Station

Loading…

Next Passes (next 24 hours)

TLE

FreshSource: CelesTrak SupGP

Epoch: Sep 14, 2026, 14:14 UTC

1 66491C 25263G   26257.59354167  .00016151  00000+0  58529-3 0  2578
2 66491  43.0040   3.9753 0001722 279.0495 239.4301 15.27552941    18

Track STARLINK-35663 in real time with AllMySat

Download on the App Store